Regional Weather Roundup
Issued by NWS

Home | Current Version | Previous Version | Text Only | Print | Product List | Glossary On
Versions: 1 2 3 4 5 6 7 8 9 10 11 12 13 14 15 16 17 18 19 20 21 22 23 24 25 26 27 28 29 30 31 32 33 34 35 36 37 38 39 40 41 42 43 44 45 46 47 48 49 50
000
ASUS43 KMPX 241701
RWRMN
WEATHER ROUNDUP FOR MINNESOTA
NATIONAL WEATHER SERVICE TWIN CITIES/CHANHASSEN MN
1100 AM CST TUE JAN 24 2017


NOTE: "FAIR" INDICATES FEW OR NO CLOUDS BELOW 12,000 FEET WITH NO
SIGNIFICANT WEATHER AND/OR OBSTRUCTIONS TO VISIBILITY. N/A MEANS
CURRENT SKY AND/OR WEATHER CONDITIONS ARE NOT AVAILABLE.

MNZ060>063-068>070-241800-
   Twin Cities Metro

CITY           SKY/WX    TMP DP  RH WIND       PRES   REMARKS
TWIN CITIES    CLOUDY    32  25  75 NE9       29.88S WCI  24
ST PAUL        CLOUDY    32  27  81 N6        29.89F WCI  26
CRYSTAL        CLOUDY    32  23  69 N9        29.86F WCI  24
BLAINE         CLOUDY    34  28  80 NE7       29.87F WCI  28
LAKEVILLE      CLOUDY    28  27  93 NE5       29.87S WCI  23
EDEN PRAIRIE   CLOUDY    32  25  75 NE7       29.85F WCI  26
SOUTH ST PAUL  CLOUDY    32  28  85 N6        29.87F WCI  26
LAKE ELMO      CLOUDY    32  28  86 N3        29.88F
$$
MNZ001>005-007-008-013>017-022>024-027-028-241800-
   Northwest Minnesota

CITY           SKY/WX    TMP DP  RH WIND       PRES   REMARKS
BEMIDJI        CLOUDY    27  24  86 SW6       29.87S WCI  21
HALLOCK        CLOUDY    28  25  86 SW8       29.87R WCI  20
ROSEAU         PTSUNNY   27  21  80 SW8       29.86S WCI  18
WARROAD        CLOUDY    27  21  80 SW6       29.86F WCI  20
THIEF RVR FALL CLOUDY    25  21  85 W8        29.89R WCI  16
CROOKSTON      CLOUDY   N/A N/A N/A SW8       29.91R
FOSSTON        CLOUDY    23  19  86 W7        29.89S WCI  15
DETROIT LAKES  CLOUDY    28  27  93 N6        29.88S WCI  22
PARK RAPIDS    CLOUDY    29  22  75 CALM      29.86S
MAHNOMEN       CLOUDY    25  22  88 N3        29.87F
$$
MNZ006-009>011-018-025>026-241800-
   North Central Minnesota

CITY           SKY/WX    TMP DP  RH WIND       PRES   REMARKS
BAUDETTE       CLOUDY    24  20  84 S3        29.87S
FLAG ISLAND    CLOUDY    25  23  93 S12       29.85R WCI  14
INTL FALLS     CLOUDY    27  22  81 SW6       29.87S WCI  20
WASKISH        CLOUDY    27  23  86 SW9       29.88R WCI  17
BIG FORK       CLOUDY    28  23  80 SW5       29.87S WCI  23
LONGVILLE      CLOUDY    28  23  80 CALM      29.87F
GRAND RAPIDS   CLOUDY    28  24  85 SW3       29.89S
CRANE LAKE     CLOUDY    27  25  93 W5        29.89S WCI  21
ORR            CLOUDY    27  21  80 CALM      29.84F
COOK           CLOUDY    28  25  86 W6        29.87S WCI  22
WALKER         CLOUDY    27  23  84 CALM      29.87S
$$
MNZ012-019>021-037-241800-
   Northeast Minnesota

CITY           SKY/WX    TMP DP  RH WIND       PRES   REMARKS
DULUTH         CLOUDY    31  25  78 NW6       29.85S WCI  25
ELY            CLOUDY    28  25  86 W3        29.85F
HIBBING        CLOUDY    27  24  89 NW6       29.86S WCI  20
EVELETH        CLOUDY    30  25  83 W6        29.87S WCI  24
DULUTH HARBOR  CLOUDY    34  28  80 W7        29.90S WCI  28
TWO HARBORS    CLOUDY    36  27  69 N5        29.85S
SILVER BAY     CLOUDY    36  28  75 NW6       29.84S
GRAND MARAIS     N/A     38  30  73 CALM      29.85F
G MARAIS ARPRT CLOUDY    30  25  80 NW6       29.82S WCI  24
$$
MNZ029>031-032-039>041-046>048-054>057-064-241800-
   West Central Minnesota

CITY           SKY/WX    TMP DP  RH WIND       PRES   REMARKS
FERGUS FALLS   CLOUDY    30  25  80 NE3       29.91F
WHEATON        CLOUDY    30  28  93 N5        29.90S WCI  25
MORRIS         MOSUNNY   34  27  75 NE3       29.85F
ALEXANDRIA     CLOUDY    31  25  78 NE6       29.86F WCI  25
ELBOW LAKE     PTSUNNY   31  27  85 NE3       29.87S FOG
WADENA         CLOUDY    28  25  86 CALM      29.86F
GLENWOOD       PTSUNNY   30  27  86 E6        29.85F WCI  24
APPLETON       CLOUDY    34  27  75 E6        29.86S WCI  29
ORTONVILLE     CLOUDY    32  27  80 CALM      29.86S
MADISON        CLOUDY    34  28  80 E9        29.87R WCI  26
WILLMAR        CLOUDY    30  28  93 CALM      29.87S
$$
MNZ033>034-036-042>043-049>051-058-059-241800-
   Central Minnesota

CITY           SKY/WX    TMP DP  RH WIND       PRES   REMARKS
ST CLOUD       CLOUDY    32  26  78 NE5       29.87F WCI  27
SAUK CENTRE    CLOUDY    30  26  82 NE3       29.86F
PAYNESVILLE    CLOUDY    31  30  96 NE8       29.86F WCI  23
AITKIN         CLOUDY    34  23  64 CALM      29.86F
PINE RIVER     CLOUDY    28  23  80 CALM      29.91F
BRAINERD       CLOUDY    30  24  78 CALM      29.87F
STAPLES        CLOUDY    28  25  86 CALM      29.87S
LONG PRAIRIE   CLOUDY    30  27  86 CALM      29.88F
LITTLE FALLS   CLOUDY    32  25  74 CALM      29.88F
LITCHFIELD     CLOUDY    32  28  86 NE7       29.86S WCI  26
BUFFALO        CLOUDY    31  26  80 N8        29.87F WCI  24
MAPLE LAKE     CLOUDY    32  28  86 NE7       29.87F WCI  26
HUTCHINSON     CLOUDY    32  28  86 NE8       29.87S WCI  24
$$
MNZ037-044-045-052-053-241800-
   East Central Minnesota

CITY           SKY/WX    TMP DP  RH WIND       PRES   REMARKS
PRINCETON      CLOUDY    32  27  80 CALM      29.88F
MORA           CLOUDY    32  27  80 CALM      29.90F
CAMBRIDGE      CLOUDY    34  25  69 NW5       29.86F WCI  30
RUSH CITY      CLOUDY    32  27  80 NW3       29.90S
MOOSE LAKE     CLOUDY    32  27  80 W3        29.86S
HINCKLEY       CLOUDY    32  27  80 CALM      29.89S
CLOQUET        CLOUDY    30  25  80 W5        29.87S WCI  25
MCGREGOR       CLOUDY    32  27  80 NW5       29.88F WCI  27
$$
MNZ071>073-080-081-089-090-097-098-241800-
   Southwest Minnesota

CITY           SKY/WX    TMP DP  RH WIND       PRES   REMARKS
MONTEVIDEO     CLOUDY    30  27  86 SE9       29.88R WCI  22
GRANITE FALLS  CLOUDY    32  28  86 NE7       29.88R WCI  26
CANBY          CLOUDY    32  29  89 CALM      29.86S
MARSHALL       CLOUDY    30  27  88 E9        29.86R WCI  22
REDWOOD FALLS  CLOUDY    31  26  82 E8        29.86S WCI  23
OLIVIA         CLOUDY    32  28  86 E5        29.86S WCI  27
PIPESTONE      CLOUDY    30  28  93 E15       29.78R FOG     WCI  19
WINDOM         CLOUDY    30  28  93 NE10      29.82S WCI  21
WORTHINGTON    CLOUDY    29  28  96 E17       29.79F WCI  17
JACKSON        CLOUDY    28  27  93 E15       29.81F WCI  17
TRACY          CLOUDY    31  29  92 E8        29.83F WCI  23
SLAYTON        CLOUDY    28  28  98 E12G18    29.82R FOG     WCI  18
$$
MNZ065>067-074>077-082>085-091>093-241800-
   South Central Minnesota

CITY           SKY/WX    TMP DP  RH WIND       PRES   REMARKS
MANKATO        CLOUDY    31  27  85 E8        29.86F WCI  23
NEW ULM        CLOUDY    30  27  86 NE7       29.85F WCI  23
ST JAMES       CLOUDY    30  28  93 E9        29.85F WCI  22
FAIRMONT       CLOUDY    30  27  88 E12       29.83F WCI  20
GLENCOE        CLOUDY    32  29  88 E5        29.86S WCI  27
OWATONNA       CLOUDY    30  27  86 E5        29.87S FOG     WCI  25
WASECA         CLOUDY    32  30  93 E9        29.87F WCI  24
ALBERT LEA     CLOUDY    30  28  93 NE9       29.83F WCI  22
$$
MNZ078>079-086>088-094>096-241800-
   Southeast Minnesota

CITY           SKY/WX    TMP DP  RH WIND       PRES   REMARKS
ROCHESTER      CLOUDY    30  28  92 CALM      29.86S FOG
RED WING       CLOUDY    34  27  75 E6        29.88S WCI  29
STANTON        CLOUDY    32  28  86 E7        29.86S FOG     WCI  26
DODGE CENTER   CLOUDY    30  28  93 MISG      29.86S FOG
WINONA         CLOUDY    34  28  80 CALM      29.90S
AUSTIN         CLOUDY    30  27  86 NE6       29.85F WCI  24
PRESTON        CLOUDY    29  26  86 E3        29.87S
$$
ABBREVIATIONS USED IN REMARKS
   TC - TEMPERATURES IN CELSIUS
  WCI - WIND CHILL INDEX
   HX - HEAT INDEX
  VSB - VISIBILITY
$$




USA.gov is the U.S. government's official web portal to all federal, state and local government web resources and services.